www.pogodaiklimat.ru

ПОГОДА в Рокингеме, NC

  • Прогноз погоды в Рокингеме
  • Монитор погоды в Рокингеме
  • Климат в Рокингеме

АРХИВ ПОГОДЫ в Рокингеме

Время (UTC), дата Ветер
(напр.,м/с)
 
Видим.   Явления Облачность Т
(С)
Тd
(С)
f
(%)
Тe
(С)
Тes
(С)
Комфортность

P
(гПа)

Po
(гПа)
Тmin
(С)
Tmax
(С)
R
(мм)
SD
(см)
01:40 16.06 Ю  16 км    ясно  +22.2  +11.7  51  +24  +24  комфорт    1006.7         
02:00 16.06 Ю  16 км    ясно  +22.0  +13.7  59  +25  +25  комфорт    1006.7         
02:20 16.06 Ю  16 км    ясно  +22.0  +15.2  65  +26  +26  душно    1006.4         
02:40 16.06 Ю  16 км    ясно  +21.8  +16.1  70  +26  +26  душно    1006.4         
03:00 16.06 Ю  16 км    ясно  +21.7  +17.0  75  +26  +26  душно    1006.4         
03:20 16.06 Ю  16 км    ясно  +21.6  +17.5  77  +26  +26  душно    1006.4         
03:40 16.06 Ю  16 км    ясно  +21.5  +17.8  79  +26  +26  душно    1006.1         
04:00 16.06 Ю  16 км    ясно  +21.2  +18.1  82  +25  +25  комфорт    1006.1         
04:20 16.06 Ю  16 км    ясно  +21.0  +18.3  85  +26  +26  душно    1006.1         
04:40 16.06 Ю  16 км    ясно  +20.8  +18.5  87  +25  +25  комфорт    1006.1         
05:00 16.06 Ю  16 км    ясно  +20.5  +18.5  88  +25  +25  комфорт    1005.7         
05:20 16.06 Ю  16 км    ясно  +20.3  +18.2  88  +24  +24  комфорт    1005.7         
05:40 16.06 Ю  16 км    ясно  +20.0  +18.0  88  +24  +24  комфорт    1005.4         
06:00 16.06 Ю  16 км    ясно  +19.7  +17.6  88  +23  +23  комфорт    1005.1         
06:20 16.06   16 км    ясно  +19.5  +17.5  88  +22  +22  комфорт    1005.1         
06:40 16.06 ЮЗ  16 км    ясно  +19.0  +17.0  88  +21  +21  комфорт    1005.1         
07:00 16.06   16 км    ясно  +18.8  +16.7  88  +20  +20      1004.7         
07:20 16.06   16 км    ясно  +19.0  +17.0  88  +20  +20      1004.7         
07:40 16.06 Ю  16 км    ясно  +19.1  +17.0  88  +22  +22  комфорт    1004.4         
08:00 16.06 Ю  16 км    5/5 30 м  +19.0  +17.0  88  +21  +21  комфорт    1004.4         
08:20 16.06   16 км    8/8 30 м  +19.0  +16.8  87  +20  +20      1004.7         
08:40 16.06 Ю  16 км    8/8 30 м  +19.0  +16.8  87  +21  +21  комфорт    1004.7         
09:00 16.06 Ю  16 км    8/8 30 м  +19.0  +16.8  87  +21  +21  комфорт    1004.7         
09:20 16.06   11 км    8/8 30 м  +19.0  +16.8  87  +20  +20      1004.7         
09:40 16.06 Ю  11 км    10/10 30 м  +19.0  +17.0  88  +21  +21  комфорт    1005.1         
10:00 16.06 Ю  1 км  дымка  10/10 30 м  +19.0  +17.0  88  +21  +21  комфорт    1005.1         
10:20 16.06 Ю  1 км  дымка  10/10 30 м  +19.4  +17.2  87  +22  +22  комфорт    1005.4         
10:40 16.06 ЮЗ  6 км  дымка  10/10 30 м  +19.8  +17.7  88  +23  +23  комфорт    1005.4         
11:00 16.06 ЮЗ  8 км  дымка  10/10 90 м  +20.1  +18.0  88  +24  +24  комфорт    1005.4         
11:20 16.06 ЮЗ  8 км  дымка  10/10 90 м  +20.4  +18.2  87  +25  +25  комфорт    1005.7         
11:40 16.06 ЮЗ  11 км    10/10 90 м  +21.0  +18.8  87  +26  +26  душно    1005.7         
12:00 16.06 З  16 км    8/8 150 м  +21.7  +19.5  87  +27  +28  душно    1006.1         
12:20 16.06 З  16 км    5/5 60 м  +23.2  +19.2  78  +30  +32  очень
душно 
  1006.1         
12:40 16.06 З  16 км    ясно  +24.2  +18.7  71  +29  +34  душно    1006.1         
13:00 16.06 З  16 км    ясно  +25.0  +18.6  68  +30  +39  душно    1006.1         
13:20 16.06 З  16 км    ясно  +25.8  +17.9  62  +30  +39  душно    1005.7         
13:40 16.06 ЮЗ  16 км    ясно  +26.5  +16.3  53  +30  +36  душно    1006.1         
14:00 16.06 ЮЗ  16 км    ясно  +27.6  +14.7  45  +30  +35  жарко    1006.1         
14:20 16.06 ЮЗ  6
{8} 
16 км    ясно  +28.1  +14.0  42  +30  +34  жарко    1006.1         
14:40 16.06 ЮЗ  16 км    ясно  +28.3  +14.6  43  +31  +40  душно    1005.7         
15:00 16.06 ЮЗ  3
{7} 
16 км    ясно  +28.8  +14.6  42  +31  +45  жарко    1005.7         
15:20 16.06 ЮЗ  16 км    ясно  +28.7  +14.7  42  +31  +44  жарко    1005.4         
15:40 16.06 З  6
{8} 
16 км    5/5 1320 м  +29.3  +14.7  41  +32  +34  душно    1005.4         
16:00 16.06 ЮЗ  6
{8} 
16 км    5/5 1380 м  +29.7  +14.8  40  +32  +35  душно    1005.1         
16:20 16.06 ЮЗ  4
{7} 
16 км    5/5 1800 м  +30.1  +14.2  38  +32  +38  жарко    1004.7         
16:40 16.06 З  4
{8} 
16 км    5/5 1500 м  +29.8  +14.0  38  +32  +38  душно    1004.4         
17:00 16.06 З  16 км    5/5 1500 м  +30.4  +14.2  37  +32  +37  жарко    1004.1         
17:20 16.06 ЮЗ  16 км    5/5 1500 м  +30.9  +14.4  37  +33  +38  душно    1003.7         

 

Местоположение метеостанции Rockingham-Hamlet Airport: широта 34.8908 долгота -79.7589 высота над уровнем моря 109 м.

В архиве по умолчанию представлена погода в Рокингеме за последние 1-2 суток. Обновление информации о фактической погоде в базе происходит ежечасно! Архивные данные за месяц целиком и за предыдущие месяцы Вы можете получить, выбрав интересующий диапазон дат из раскрывающегося списка и нажав кнопку "Ввод!".

Внимание! Архив погоды МЕТАР в базе сайта хранится не более 60 дней. Нет смысла пытаться выбрать более раннюю дату.

Внимание! Время в таблицах - всемирное. Для получения местного времени необходимо прибавить поправку, которая в Рокингеме равна -5 ч.

Ветер - указаны скорость ветра в м/с и направление, откуда дует ветер: С - северный, СВ - северо-восточный, В - восточный, ЮВ - юго-восточный, Ю - южный, ЮЗ - юго-западный, З - западный, СЗ - северо-западный.
Видимость - горизонтальная дальность видимости в метрах или километрах. При видимости от 1 до 10 км при отсутствии осадков обычно наблюдается дымка, при ухудшении видимости до 1 км и менее - туман. В сухую погоду видимость может ухудшаться дымом, пылью или мглою.
Атмосферные явления - указаны явления, наблюдавшиеся в указанный момент времени.
Облачность - указаны через наклонную черту верхняя и нижняя облачность в баллах и высота нижней границы облаков в метрах. Внимание: облачность, как и прочие метеорологические величины в США измеряются автоматическими метеостанциями. Указанные значения в баллах носят условный характер и показывают процент времени, в течение которого, в среднем, лазерный луч высотомера отражался от облаков обратно.
T - Температура воздуха - температура, измеренная на высоте 2 м над землей.
Td - Температура точки росы - температура, при понижении до которой содержащийся в воздухе водяной пар достигнет насыщения.
f - Относительная влажность воздуха - влажноcть воздуха, измеренная на высоте 2 м над землей.
Te - Эффективная температура - температура, которую ощущает одетый по сезону человек в тени. Характеристика душности погоды. При расчете учитывается влияние влажности воздуха и скорости ветра на теплоощущения человека.
Tes - Эффективная температура на солнце - температура, которую ощущает человек, с поправкой на солнечный нагрев. Характеристика знойности погоды. Зависит от высоты солнца над горизонтом, облачности и скорости ветра. Ночью, в пасмурную погоду, а также при ветре 12 м/с и более поправка равна нулю.
P - Атмосферное давление - приведенное к уровню моря атмосферное давление.
Po - Атмосферное давление - измеренное на уровне метеостанции атмосферное давление.
Tmin - Минимальная температура - минимум температуры воздуха на высоте 2 м над землей.
Tmax - Максимальная температура - максимум температуры воздуха на высоте 2 м над землей.
R - Количество осадков - Количество выпавших осадков за 3 или 6 часов, мм.
SD - Снежный покров - Высота снежного покрова, см.